GBMKR EGCB-EGCB

Flight info

Callsign GBMKR
Flight time 0h 15m
Altitude 1500
Route CIRCUITS
Aircraft P28A/L-VGD/A

Departure

Time 2026-05-05 16:28
Airport Manchester Barton Aerodrome (EGCB)

Arrival

Time 2026-05-05 16:43
Airport Manchester Barton Aerodrome (EGCB)
Time Latitude Longitude Altitude Speed Heading
2026-05-05 16:17 53.47081 -2.39390 72 ft 0 kts 290°
2026-05-05 16:26 53.47100 -2.39462 74 ft 14 kts 297°
2026-05-05 16:27 53.47124 -2.39494 68 ft 1 kts 129°
2026-05-05 16:27 53.47121 -2.39458 73 ft 4 kts 82°
2026-05-05 16:27 53.47155 -2.39087 73 ft 61 kts 82°
2026-05-05 16:27 53.47217 -2.38326 326 ft 65 kts 76°
2026-05-05 16:28 53.47279 -2.37488 560 ft 78 kts 82°
2026-05-05 16:28 53.47514 -2.36684 827 ft 80 kts 19°
2026-05-05 16:28 53.47998 -2.37043 1037 ft 92 kts 300°
2026-05-05 16:28 53.48087 -2.38145 1015 ft 98 kts 277°
2026-05-05 16:29 53.48094 -2.39290 980 ft 98 kts 273°
2026-05-05 16:29 53.48068 -2.40421 946 ft 96 kts 269°
2026-05-05 16:29 53.47995 -2.41501 909 ft 91 kts 264°
2026-05-05 16:29 53.47714 -2.42382 804 ft 99 kts 191°
2026-05-05 16:30 53.47077 -2.42007 737 ft 99 kts 131°
2026-05-05 16:30 53.46984 -2.40965 426 ft 97 kts 77°
2026-05-05 16:30 53.47084 -2.39877 196 ft 87 kts 80°
2026-05-05 16:30 53.47158 -2.38952 78 ft 72 kts 80°
2026-05-05 16:31 53.47223 -2.38029 330 ft 78 kts 81°
2026-05-05 16:31 53.47283 -2.37112 570 ft 82 kts 79°
2026-05-05 16:31 53.47431 -2.36271 775 ft 72 kts 38°
2026-05-05 16:31 53.47911 -2.36382 733 ft 83 kts 330°
2026-05-05 16:32 53.48328 -2.37061 769 ft 89 kts 280°
2026-05-05 16:32 53.48268 -2.38073 733 ft 86 kts 262°
2026-05-05 16:32 53.48177 -2.39019 754 ft 80 kts 265°
2026-05-05 16:32 53.48092 -2.39946 750 ft 80 kts 262°
2026-05-05 16:33 53.48019 -2.40853 781 ft 78 kts 264°
2026-05-05 16:33 53.47859 -2.41697 804 ft 76 kts 229°
2026-05-05 16:33 53.47362 -2.41785 652 ft 74 kts 156°
2026-05-05 16:33 53.46988 -2.41252 477 ft 80 kts 94°
2026-05-05 16:34 53.47049 -2.40308 259 ft 76 kts 81°
2026-05-05 16:34 53.47123 -2.39439 102 ft 77 kts 78°
2026-05-05 16:34 53.47186 -2.38606 144 ft 67 kts 78°
2026-05-05 16:34 53.47243 -2.37871 457 ft 63 kts 74°
2026-05-05 16:35 53.47373 -2.37063 657 ft 78 kts 68°
2026-05-05 16:35 53.47555 -2.36173 863 ft 85 kts 64°
2026-05-05 16:35 53.47877 -2.35429 992 ft 81 kts
2026-05-05 16:35 53.48384 -2.35818 1013 ft 85 kts 311°
2026-05-05 16:36 53.48599 -2.36795 971 ft 93 kts 271°
2026-05-05 16:36 53.48524 -2.37506 910 ft 93 kts 263°
2026-05-05 16:36 53.48409 -2.38540 811 ft 86 kts 264°
2026-05-05 16:36 53.48305 -2.39532 734 ft 86 kts 262°
2026-05-05 16:37 53.48189 -2.40482 702 ft 80 kts 259°
2026-05-05 16:37 53.48053 -2.41369 683 ft 78 kts 258°
2026-05-05 16:37 53.47907 -2.42231 694 ft 75 kts 257°
2026-05-05 16:37 53.47495 -2.42778 625 ft 83 kts 193°
2026-05-05 16:38 53.46915 -2.42728 529 ft 89 kts 150°
2026-05-05 16:38 53.46793 -2.41821 432 ft 78 kts 66°
2026-05-05 16:38 53.46970 -2.40978 308 ft 74 kts 70°
2026-05-05 16:38 53.47064 -2.40150 204 ft 70 kts 79°
2026-05-05 16:39 53.47132 -2.39328 86 ft 72 kts 80°
2026-05-05 16:39 53.47182 -2.38530 220 ft 71 kts 81°
2026-05-05 16:39 53.47239 -2.37630 433 ft 88 kts 80°
2026-05-05 16:39 53.47326 -2.36563 701 ft 97 kts 78°
2026-05-05 16:40 53.47667 -2.35738 856 ft 84 kts 12°
2026-05-05 16:40 53.48222 -2.35983 935 ft 88 kts 330°
2026-05-05 16:40 53.48630 -2.36699 1022 ft 88 kts 295°
2026-05-05 16:40 53.48654 -2.37678 1020 ft 87 kts 256°
2026-05-05 16:41 53.48431 -2.38663 963 ft 92 kts 252°
2026-05-05 16:41 53.48198 -2.39654 957 ft 90 kts 255°
2026-05-05 16:41 53.48020 -2.40623 904 ft 84 kts 258°
2026-05-05 16:41 53.47866 -2.41495 961 ft 64 kts 257°
2026-05-05 16:42 53.47594 -2.42146 981 ft 83 kts 207°
2026-05-05 16:42 53.47044 -2.42038 835 ft 80 kts 151°
2026-05-05 16:42 53.46919 -2.41234 573 ft 76 kts 62°
2026-05-05 16:42 53.47044 -2.40393 345 ft 75 kts 76°
2026-05-05 16:43 53.47120 -2.39496 98 ft 78 kts 80°
2026-05-05 16:43 53.47175 -2.38783 73 ft 30 kts 84°
2026-05-05 16:43 53.47176 -2.38566 79 ft 11 kts 147°
2026-05-05 16:43 53.47151 -2.38637 77 ft 5 kts 264°
2026-05-05 16:44 53.47144 -2.38739 71 ft 9 kts 263°
2026-05-05 16:44 53.47115 -2.38810 75 ft 11 kts 224°
2026-05-05 16:44 53.47086 -2.38795 70 ft 3 kts 37°
2026-05-05 16:44 53.47088 -2.38792 75 ft 0 kts 38°
2026-05-05 16:46 53.47095 -2.38786 75 ft 7 kts 15°
2026-05-05 16:46 53.47116 -2.38898 67 ft 14 kts 263°
2026-05-05 16:47 53.47102 -2.39117 64 ft 24 kts 263°
2026-05-05 16:47 53.47087 -2.39377 69 ft 14 kts 268°
2026-05-05 16:47 53.47110 -2.39454 65 ft 5 kts 329°
2026-05-05 16:47 53.47125 -2.39434 66 ft 16 kts 81°
2026-05-05 16:48 53.47170 -2.38902 122 ft 66 kts 77°
2026-05-05 16:48 53.47214 -2.38086 375 ft 74 kts 81°
2026-05-05 16:48 53.47270 -2.37143 660 ft 84 kts 79°
2026-05-05 16:48 53.47373 -2.36201 1078 ft 81 kts 70°
2026-05-05 16:49 53.47816 -2.35766 1208 ft 82 kts 358°
2026-05-05 16:49 53.48417 -2.35803 1242 ft 88 kts 357°
2026-05-05 16:49 53.48984 -2.36166 1264 ft 88 kts 323°
2026-05-05 16:49 53.49310 -2.37065 1262 ft 94 kts 292°
2026-05-05 16:50 53.49466 -2.38122 1298 ft 94 kts 285°
2026-05-05 16:50 53.49320 -2.39167 1213 ft 97 kts 240°
2026-05-05 16:50 53.48979 -2.40139 1136 ft 96 kts 244°
2026-05-05 16:50 53.48749 -2.41076 1105 ft 82 kts 253°
2026-05-05 16:51 53.48518 -2.41984 995 ft 85 kts 249°
2026-05-05 16:51 53.48285 -2.42882 932 ft 84 kts 249°
2026-05-05 16:51 53.48040 -2.43764 847 ft 82 kts 246°
2026-05-05 16:51 53.47764 -2.44615 714 ft 85 kts 243°
2026-05-05 16:52 53.47397 -2.45323 669 ft 80 kts 203°
2026-05-05 16:52 53.46863 -2.45253 595 ft 79 kts 154°
2026-05-05 16:52 53.46486 -2.44630 515 ft 76 kts 100°
2026-05-05 16:52 53.46695 -2.43890 513 ft 74 kts 42°
2026-05-05 16:53 53.47047 -2.43227 771 ft 75 kts 44°
2026-05-05 16:53 53.47388 -2.42573 824 ft 73 kts 46°
2026-05-05 16:53 53.47703 -2.41893 855 ft 73 kts 47°
2026-05-05 16:53 53.48004 -2.41242 909 ft 71 kts 46°
2026-05-05 16:54 53.48323 -2.40581 951 ft 72 kts 48°
2026-05-05 16:54 53.48625 -2.39910 973 ft 73 kts 46°
2026-05-05 16:54 53.48927 -2.39250 959 ft 70 kts 47°
2026-05-05 16:54 53.49234 -2.38607 939 ft 70 kts 47°
2026-05-05 16:55 53.49527 -2.37967 968 ft 68 kts 46°
2026-05-05 16:55 53.49898 -2.37526 1012 ft 68 kts
2026-05-05 16:55 53.50293 -2.37876 1052 ft 70 kts 310°
2026-05-05 16:55 53.50468 -2.38636 1070 ft 71 kts 281°
2026-05-05 16:56 53.50422 -2.39451 1112 ft 72 kts 257°
2026-05-05 16:56 53.50261 -2.40250 1166 ft 70 kts 255°
2026-05-05 16:56 53.50031 -2.40997 1131 ft 69 kts 236°
2026-05-05 16:56 53.49664 -2.41556 1122 ft 81 kts 208°
2026-05-05 16:57 53.49045 -2.41589 1090 ft 93 kts 171°
2026-05-05 16:57 53.48429 -2.41434 1097 ft 91 kts 171°
2026-05-05 16:57 53.47860 -2.41060 1130 ft 87 kts 153°
2026-05-05 16:57 53.47342 -2.40521 1163 ft 86 kts 146°
2026-05-05 16:58 53.46853 -2.39985 1147 ft 84 kts 143°
2026-05-05 16:58 53.46382 -2.39381 1082 ft 88 kts 136°
2026-05-05 16:58 53.45915 -2.38699 1054 ft 87 kts 135°
2026-05-05 16:58 53.45482 -2.38032 1052 ft 84 kts 133°
2026-05-05 16:59 53.45049 -2.37335 1038 ft 87 kts 131°
2026-05-05 16:59 53.44629 -2.36596 1049 ft 85 kts 131°
2026-05-05 16:59 53.44214 -2.35884 1014 ft 86 kts 130°
2026-05-05 16:59 53.43947 -2.35031 994 ft 82 kts 103°
2026-05-05 17:00 53.43773 -2.34136 973 ft 82 kts 107°
2026-05-05 17:00 53.43592 -2.33229 968 ft 82 kts 105°
2026-05-05 17:00 53.43435 -2.32288 947 ft 85 kts 103°
2026-05-05 17:00 53.43265 -2.31335 1033 ft 85 kts 104°
2026-05-05 17:01 53.43087 -2.30403 1034 ft 84 kts 103°
2026-05-05 17:01 53.42908 -2.29470 1039 ft 86 kts 106°
2026-05-05 17:01 53.42726 -2.28521 1066 ft 85 kts 105°
2026-05-05 17:01 53.42708 -2.27609 1104 ft 78 kts 55°
2026-05-05 17:02 53.43130 -2.27245 1137 ft 70 kts 352°
2026-05-05 17:02 53.43542 -2.27692 1136 ft 76 kts 303°
2026-05-05 17:02 53.43654 -2.28563 1183 ft 78 kts 267°
2026-05-05 17:02 53.43370 -2.29398 1158 ft 88 kts 232°
2026-05-05 17:03 53.42924 -2.30113 1179 ft 88 kts 224°
2026-05-05 17:03 53.42433 -2.30792 1160 ft 91 kts 221°
2026-05-05 17:03 53.41933 -2.31402 1170 ft 87 kts 219°
2026-05-05 17:03 53.41428 -2.31988 1115 ft 89 kts 219°
2026-05-05 17:04 53.40927 -2.32546 1091 ft 85 kts 213°
2026-05-05 17:04 53.40410 -2.33047 1040 ft 87 kts 213°
2026-05-05 17:04 53.39899 -2.33580 1009 ft 86 kts 214°
2026-05-05 17:04 53.39375 -2.34125 943 ft 88 kts 214°
2026-05-05 17:05 53.38865 -2.34634 918 ft 86 kts 211°
2026-05-05 17:05 53.38393 -2.35187 933 ft 82 kts 219°
2026-05-05 17:05 53.37924 -2.35765 929 ft 83 kts 217°
2026-05-05 17:05 53.37475 -2.36362 965 ft 80 kts 224°
2026-05-05 17:06 53.37061 -2.36986 976 ft 82 kts 225°
2026-05-05 17:06 53.36626 -2.37637 956 ft 85 kts 226°
2026-05-05 17:06 53.36228 -2.38339 1027 ft 80 kts 232°
2026-05-05 17:06 53.35874 -2.39101 1009 ft 85 kts 233°
2026-05-05 17:07 53.35522 -2.39884 1043 ft 85 kts 236°
2026-05-05 17:07 53.35176 -2.40688 1083 ft 86 kts 237°
2026-05-05 17:07 53.34833 -2.41526 1073 ft 87 kts 238°
2026-05-05 17:07 53.34496 -2.42346 1090 ft 87 kts 238°
2026-05-05 17:08 53.34145 -2.43176 1094 ft 87 kts 235°
2026-05-05 17:08 53.33773 -2.43935 1135 ft 84 kts 232°
2026-05-05 17:08 53.33353 -2.44601 1164 ft 83 kts 215°
2026-05-05 17:08 53.32782 -2.44910 1127 ft 87 kts 188°
2026-05-05 17:09 53.32182 -2.45013 1059 ft 86 kts 186°
2026-05-05 17:09 53.31606 -2.44760 1011 ft 91 kts 146°
2026-05-05 17:09 53.31218 -2.43951 1060 ft 102 kts 109°
2026-05-05 17:09 53.31073 -2.42722 1086 ft 107 kts 91°
2026-05-05 17:10 53.31153 -2.41522 1068 ft 104 kts 76°
2026-05-05 17:10 53.31257 -2.40290 1085 ft 108 kts 81°
2026-05-05 17:10 53.31347 -2.39055 1079 ft 103 kts 79°
2026-05-05 17:10 53.31445 -2.37895 1108 ft 100 kts 78°
2026-05-05 17:11 53.31547 -2.36761 1106 ft 99 kts 77°
2026-05-05 17:11 53.31675 -2.35608 1061 ft 100 kts 70°
2026-05-05 17:11 53.31967 -2.34547 1011 ft 100 kts 53°
2026-05-05 17:11 53.32366 -2.33610 1021 ft 97 kts 49°
2026-05-05 17:12 53.32796 -2.32716 960 ft 102 kts 47°
2026-05-05 17:12 53.33262 -2.31819 862 ft 101 kts 47°
2026-05-05 17:12 53.33709 -2.30929 737 ft 101 kts 48°
2026-05-05 17:12 53.34128 -2.30060 560 ft 89 kts 48°
2026-05-05 17:13 53.34510 -2.29279 405 ft 87 kts 49°
2026-05-05 17:13 53.34864 -2.28553 263 ft 72 kts 48°
2026-05-05 17:13 53.35154 -2.27953 248 ft 72 kts 50°
2026-05-05 17:13 53.35509 -2.27208 467 ft 88 kts 50°
2026-05-05 17:14 53.35869 -2.26339 805 ft 88 kts 56°
2026-05-05 17:14 53.36281 -2.25482 1048 ft 98 kts 46°
2026-05-05 17:14 53.36757 -2.24610 1230 ft 99 kts 40°
2026-05-05 17:14 53.37361 -2.24130 1228 ft 93 kts
2026-05-05 17:15 53.37952 -2.24509 1200 ft 93 kts 328°
2026-05-05 17:15 53.38462 -2.25095 1274 ft 87 kts 327°
2026-05-05 17:15 53.38979 -2.25692 1243 ft 92 kts 330°
2026-05-05 17:15 53.39529 -2.26242 1154 ft 94 kts 332°
2026-05-05 17:16 53.40093 -2.26734 1103 ft 90 kts 335°
2026-05-05 17:16 53.40621 -2.27183 1094 ft 89 kts 342°
2026-05-05 17:16 53.41163 -2.27754 1053 ft 88 kts 330°
2026-05-05 17:16 53.41701 -2.28244 989 ft 91 kts 333°
2026-05-05 17:17 53.42244 -2.28823 977 ft 92 kts 326°
2026-05-05 17:17 53.42767 -2.29421 953 ft 92 kts 326°
2026-05-05 17:17 53.43292 -2.30004 938 ft 89 kts 326°
2026-05-05 17:17 53.43825 -2.30645 1057 ft 93 kts 324°
2026-05-05 17:18 53.44308 -2.31314 1021 ft 92 kts 323°
2026-05-05 17:18 53.44815 -2.31971 965 ft 90 kts 325°
2026-05-05 17:18 53.45316 -2.32638 962 ft 93 kts 317°
2026-05-05 17:18 53.45550 -2.33658 929 ft 99 kts 273°
2026-05-05 17:19 53.45408 -2.34786 874 ft 99 kts 258°
2026-05-05 17:19 53.45277 -2.35907 815 ft 97 kts 266°
2026-05-05 17:19 53.45253 -2.37033 758 ft 96 kts 274°
2026-05-05 17:19 53.45290 -2.38125 763 ft 92 kts 277°
2026-05-05 17:20 53.45342 -2.39207 760 ft 93 kts 279°
2026-05-05 17:20 53.45418 -2.40298 746 ft 95 kts 281°
2026-05-05 17:20 53.45537 -2.41375 741 ft 95 kts 285°
2026-05-05 17:20 53.45692 -2.42446 718 ft 87 kts 306°
2026-05-05 17:21 53.46235 -2.42658 694 ft 86 kts
2026-05-05 17:21 53.46761 -2.42285 572 ft 82 kts 46°
2026-05-05 17:21 53.46994 -2.41460 346 ft 77 kts 81°
2026-05-05 17:22 53.47096 -2.39805 146 ft 68 kts 81°
2026-05-05 17:22 53.47149 -2.39048 72 ft 57 kts 79°
2026-05-05 17:22 53.47126 -2.38829 75 ft 9 kts 190°
2026-05-05 17:22 53.47077 -2.38836 75 ft 7 kts 194°